This is the latest recevied weather packets stored in our database for station/object KK7KRZ. If no packets are shown the sender has not sent any weather packets the latest 10 day(s).
| Time | Temp. | Humidity | Pressure | Rain* | Wind** | Luminosity | Snow |
|---|---|---|---|---|---|---|---|
| 1778086954 | 13.33° C | 89% | 1020.8 hPa | 0 mm | - | 126 W/m² | - |
| 1778086653 | 13.33° C | 88% | 1021.2 hPa | 0 mm | - | 111 W/m² | - |
| 1778086350 | 13.33° C | 88% | 1021 hPa | 0 mm | - | 100 W/m² | - |
| 1778086047 | 13.33° C | 89% | 1021.1 hPa | 0 mm | - | 95 W/m² | - |
| 1778085744 | 13.33° C | 89% | 1021 hPa | 0 mm | - | 106 W/m² | - |
| 1778085440 | 13.33° C | 90% | 1021.1 hPa | 0 mm | - | 116 W/m² | - |
| 1778085135 | 12.78° C | 90% | 1021 hPa | 0 mm | - | 121 W/m² | - |
| 1778084832 | 12.78° C | 90% | 1021.3 hPa | 0 mm | - | 119 W/m² | - |
| 1778084529 | 12.78° C | 90% | 1021.2 hPa | 0 mm | - | 88 W/m² | - |
| 1778084226 | 12.78° C | 90% | 1020.8 hPa | 0 mm | - | 103 W/m² | - |
| 1778083922 | 12.78° C | 90% | 1020.7 hPa | 0 mm | - | 93 W/m² | - |
| 1778083620 | 12.78° C | 91% | 1020.5 hPa | 0 mm | - | 127 W/m² | - |
| 1778083316 | 12.22° C | 91% | 1020.6 hPa | 0 mm | - | 110 W/m² | - |
| 1778083015 | 12.22° C | 90% | 1020.7 hPa | 0 mm | - | 95 W/m² | - |
| 1778082713 | 12.78° C | 90% | 1020.8 hPa | 0 mm | - | 85 W/m² | - |
| 1778081580 | 12.22° C | 91% | 1021.3 hPa | 0 mm | - | 61 W/m² | - |
| 1778081276 | 11.67° C | 91% | 1021 hPa | 0 mm | - | 56 W/m² | - |
| 1778080974 | 11.67° C | 91% | 1021 hPa | 0 mm | - | 47 W/m² | - |
| 1778080673 | 11.67° C | 91% | 1021.2 hPa | 0 mm | - | 35 W/m² | - |
| 1778080369 | 11.67° C | 91% | 1021.2 hPa | 0 mm | - | 31 W/m² | - |
| 1778080065 | 11.67° C | 91% | 1021.1 hPa | 0 mm | - | 28 W/m² | - |
| 1778079763 | 11.67° C | 90% | 1021.1 hPa | 0 mm | - | 18 W/m² | - |
| 1778079460 | 12.22° C | 91% | 1021.1 hPa | 0 mm | - | 16 W/m² | - |
| 1778079156 | 12.22° C | 91% | 1021.1 hPa | 0 mm | - | 16 W/m² | - |
| 1778078853 | 12.22° C | 91% | 1020.7 hPa | 0 mm | - | 21 W/m² | - |
* Rain latest hour (hover to see other rain measurements)
** Current wind speed in m/s (hover to see current wind gust speed)